Location: Bli��� Lhota
(48.7570°N, 14.0120°E)
Time: 04:52:53
(UTC+00:00)

Cosmos 1844 Rocket - Pass Details

Date: 18 September 2020
Orbit: 823 x 846 km, 71.0° (Epoch: 29 October)

Event Time Altitude Azimuth Distance (km) Brightness Sun altitude
Rises 19:38:55 0° 211° (SSW) 3,347 5.8 -24.0°
Reaches altitude 10° 19:41:20 10° 212° (SSW) 2,419 5.1 -24.3°
Maximum altitude 19:46:52 77° 299° (WNW) 852 2.7 -25.1°
Drops below altitude 10° 19:52:29 10° 26° (NNE) 2,445 5.2 -25.9°
Sets 19:54:57 0° 28° (NNE) 3,386 6.0 -26.2°
